Location: Bronnegerveen
(52.9548°N, 6.8388°E)
Time: 01:43:23
(UTC+00:00)

Cosmos 1943 Rocket - Pass Details

Date: 15 June 2025
Orbit: 811 x 843 km, 71.0° (Epoch: 07 July)

Event Time Altitude Azimuth Distance (km) Brightness Sun altitude
Exits shadow 01:59:08 - 210° (SSW) 2,479 3.9 -7.4°
Reaches altitude 10° 01:59:21 10° 210° (SSW) 2,394 3.9 -7.4°
Maximum altitude 02:04:50 88° 296° (WNW) 822 2.2 -6.9°
Drops below altitude 10° 02:10:24 10° 31° (NNE) 2,422 6.4 -6.4°
Sets 02:12:51 0° 32° (NNE) 3,362 8.0 -6.2°
